Regional Weather Roundup
Issued by NWS

Home | Current Version | Previous Version | Graphics & Text | Print | Product List | Glossary On
Versions: 1 2 3 4 5 6 7 8 9 10 11 12 13 14 15 16 17 18 19 20 21 22 23 24 25 26 27 28 29 30 31 32 33 34 35 36 37 38 39 40 41 42 43 44 45 46 47 48 49 50
655
ASUS44 KJAN 010010
RWRMS

MISSISSIPPI HOURLY WEATHER ROUNDUP
NATIONAL WEATHER SERVICE JACKSON MS
700 PM CDT TUE MAR 31 2015

NOTE: "FAIR: INDICATES FEW OR NO CLOUDS BELOW 12,000 FEET WITH NO
SIGNIFICANT WEATHER AND/OR OBSTRUCTIONS TO VISIBILITY.

MSZ001>002-007>008-010>013-018>021-025>028-034>036-010100-
NORTHWEST MISSISSIPPI

CITY           SKY/WX    TMP DP  RH WIND       PRES   REMARKS
CLARKSDALE     FAIR      70  64  83 S9        29.92S
CLEVELAND      FAIR      67  62  84 S8        29.92F
GREENWOOD      MOCLDY    72  56  57 SW12      29.92S
6HR MIN TEMP:  70; 6HR MAX TEMP:  80; 6HR PCP: TRACE;

GREENVILLE     MOCLDY    66  61  84 SE3       29.92F
6HR MIN TEMP:  61; 6HR MAX TEMP:  79; 6HR PCP:  0.64;

OLIVE BRANCH   PTCLDY    72  64  78 SW12      29.90S
OXFORD         FAIR      68  59  73 SW3       29.93S
TUNICA         CLOUDY    72  63  73 SW8       29.91S
$$

MSZ003>006-009-014>017-022>024-029>033-037>039-010100-
NORTHEAST MISSISSIPPI

CITY           SKY/WX    TMP DP  RH WIND       PRES   REMARKS
COLUMBUS AFB   CLOUDY    73  60  62 SE7       29.89F
6HR MIN TEMP:  73; 6HR MAX TEMP:  80; 6HR PCP: TRACE;

CORINTH        FAIR      75  59  57 SW7G14    29.86F
GOLDN TRIANGLE MOCLDY    73  57  56 SW10      29.88F
STARKVILLE     FAIR      72  59  64 CALM      29.88F
TUPELO         CLOUDY    68  59  73 NE5       29.90S
6HR MIN TEMP:  68; 6HR MAX TEMP:  77;

$$

MSZ040-058-010100-
CENTRAL MISSISSIPPI

CITY           SKY/WX    TMP DP  RH WIND       PRES   REMARKS
JACKSON INTL   MOCLDY    77  54  44 SW9       29.96S
6HR MIN TEMP:  74; 6HR MAX TEMP:  83;

JACKSON HAWKNS PTCLDY    77  54  44 SW8       29.97S
6HR MIN TEMP:  74; 6HR MAX TEMP:  83;

MERIDIAN KEY   PTCLDY    76  53  44 NW5       29.98R
6HR MIN TEMP:  76; 6HR MAX TEMP:  81;

MERIDIAN NAS   MOCLDY    76  53  44 W6        29.97F
6HR MIN TEMP:  78; 6HR MAX TEMP:  82;

RAYMOND        FAIR      77  72  83 SW5       29.96S
VICKSBURG      MOCLDY    78  57  48 S7        29.95S
6HR MIN TEMP:  74; 6HR MAX TEMP:  83;

$$

MSZ059>079-010100-
SOUTH MISSISSIPPI

CITY           SKY/WX    TMP DP  RH WIND       PRES   REMARKS
BROOKHAVEN     FAIR      77  59  53 SW7       30.00S
HATTIESBURG    CLEAR     79  56  45 W7        29.99R
6HR MIN TEMP:  79; 6HR MAX TEMP:  84;

MCCOMB         PTCLDY    77  58  51 SW8       29.99R
6HR MIN TEMP:  76; 6HR MAX TEMP:  81;

NATCHEZ        CLEAR     77  57  50 SW6       29.98S
6HR MIN TEMP:  75; 6HR MAX TEMP:  81;

PINE BELT      CLEAR     75  55  50 SW5       30.00R
6HR MIN TEMP:  75; 6HR MAX TEMP:  82;

$$

MSZ080>082-010100-
COASTAL MISSISSIPPI

CITY           SKY/WX    TMP DP  RH WIND       PRES   REMARKS
BAY ST LOUIS   PTCLDY    75  54  46 MISG      30.00S
BILOXI         CLEAR     75  65  72 W15       30.00S
6HR MIN TEMP:  75; 6HR MAX TEMP:  78;

PASCAGOULA     CLEAR     73  65  75 SW9       30.01S
6HR MIN TEMP:  73; 6HR MAX TEMP:  81;

GULFPORT       PTCLDY    76  63  64 SW7       30.00R
6HR MIN TEMP:  76; 6HR MAX TEMP:  81;

$$



USA.gov is the U.S. government's official web portal to all federal, state and local government web resources and services.